Weather History for Glasgow, United Kingdom

Change the Weather History Date:

Saturday, June 29, 2013

  Actual Average Record
Temperature  
Mean Temperature 54 °F -  
Max Temperature 59 °F 65 °F 69 °F (2003)
Min Temperature 48 °F 49 °F 41 °F (2011)
Degree Days  
Heating Degree Days 12    
Growing Degree Days 4 (Base 50)    
Moisture  
Dew Point 49 °F    
Average Humidity 82    
Maximum Humidity 94    
Minimum Humidity 67    
Precipitation  
Precipitation 0.00 in - - ()
Sea Level Pressure  
Sea Level Pressure 30.12 in    
Wind  
Wind Speed 10 mph ()    
Max Wind Speed 18 mph    
Max Gust Speed -    
Visibility 6.0 miles    
Events      
Averages and records for this station are not official NWS values.
T = Trace of Precipitation, MM = Missing Value Source: Averaged Metar Reports

Daily Weather History Graph

Daily Weather History Graph

Search for Another Location

Airport:

Trip Planner

Search our weather history database for the weather conditions in past years. The results will help you decide how hot, cold, wet, or windy it might be!

Date:

Astronomy

Jun. 29, 2013 Rise Set
Actual Time 4:35 AM BST 10:06 PM BST
Civil Twilight 3:34 AM BST 11:07 PM BST
Nautical Twilight 1:53 AM BST 12:48 AM BST
Astronomical Twilight Sun does not rise Sun does not rise
Moon 12:10 AM BST (6/29) 12:56 PM BST (6/29)
Length of Visible Light 19h 33m
Length of Day
17h 30m
Waning Gibbous, 58% of the Moon is Illuminated
Jun 29
Waning Gibbous
Jun 30
Last Quarter
Jul 8
New
Jul 16
First Quarter
Jul 22
Full

Hourly Weather History & Observations

Time (BST) Temp. Dew Point Humidity Pressure Visibility Wind Dir Wind Speed Gust Speed Precip Events Conditions
12:20 AM 51.8 °F 44.6 °F 76% 30.09 in 6.2 mi West 10.4 mph - N/A   Mostly Cloudy
12:50 AM 50.0 °F 44.6 °F 82% 30.09 in 6.2 mi West 8.1 mph - N/A   Mostly Cloudy
1:20 AM 50.0 °F 44.6 °F 82% 30.09 in 6.2 mi WSW 8.1 mph - N/A   Mostly Cloudy
1:50 AM 50.0 °F 46.4 °F 87% 30.09 in 6.2 mi WSW 8.1 mph - N/A   Overcast
2:20 AM 50.0 °F 46.4 °F 87% 30.09 in 6.2 mi SW 5.8 mph - N/A   Mostly Cloudy
2:50 AM 50.0 °F 44.6 °F 82% 30.09 in 6.2 mi WSW 6.9 mph - N/A   Mostly Cloudy
3:20 AM 50.0 °F 46.4 °F 87% 30.09 in 6.2 mi WSW 9.2 mph - N/A   Partly Cloudy
3:50 AM 50.0 °F 44.6 °F 82% 30.09 in 6.2 mi WSW 6.9 mph - N/A   Partly Cloudy
4:20 AM 48.2 °F 44.6 °F 87% 30.09 in 6.2 mi WSW 6.9 mph - N/A   Unknown
4:50 AM 48.2 °F 42.8 °F 82% 30.09 in 6.2 mi WSW 6.9 mph - N/A   Scattered Clouds
5:20 AM 48.2 °F 44.6 °F 87% 30.09 in 6.2 mi WSW 8.1 mph - N/A   Scattered Clouds
5:50 AM 50.0 °F 46.4 °F 87% 30.12 in - WSW 6.9 mph - N/A   Clear
6:20 AM 50.0 °F 46.4 °F 87% 30.12 in 6.2 mi WSW 8.1 mph - N/A   Partly Cloudy
6:50 AM 51.8 °F 46.4 °F 82% 30.12 in 6.2 mi West 5.8 mph - N/A   Partly Cloudy
7:20 AM 51.8 °F 46.4 °F 82% 30.12 in - WSW 8.1 mph - N/A   Clear
7:50 AM 51.8 °F 46.4 °F 82% 30.12 in 6.2 mi WSW 11.5 mph - N/A   Partly Cloudy
8:20 AM 53.6 °F 48.2 °F 82% 30.12 in 6.2 mi WSW 10.4 mph - N/A   Scattered Clouds
8:50 AM 53.6 °F 48.2 °F 82% 30.12 in 6.2 mi WSW 10.4 mph - N/A   Scattered Clouds
9:20 AM 55.4 °F 48.2 °F 77% 30.15 in 6.2 mi West 10.4 mph - N/A   Scattered Clouds
9:50 AM 55.4 °F 46.4 °F 72% 30.15 in 6.2 mi West 10.4 mph - N/A   Mostly Cloudy
10:20 AM 55.4 °F 48.2 °F 77% 30.15 in 6.2 mi West 10.4 mph - N/A   Mostly Cloudy
10:50 AM 57.2 °F 46.4 °F 67% 30.15 in 6.2 mi West 10.4 mph - N/A   Mostly Cloudy
11:20 AM 55.4 °F 48.2 °F 77% 30.15 in 6.2 mi WSW 11.5 mph - N/A   Mostly Cloudy
11:50 AM 55.4 °F 48.2 °F 77% 30.15 in 6.2 mi SW 11.5 mph - N/A   Mostly Cloudy
12:20 PM 57.2 °F 50.0 °F 77% 30.15 in 6.2 mi WSW 11.5 mph - N/A   Mostly Cloudy
12:50 PM 59.0 °F 50.0 °F 72% 30.15 in 6.2 mi West 11.5 mph - N/A   Mostly Cloudy
1:20 PM 57.2 °F 50.0 °F 77% 30.12 in 6.2 mi WSW 12.7 mph - N/A   Mostly Cloudy
1:50 PM 57.2 °F 50.0 °F 77% 30.12 in 6.2 mi SW 11.5 mph - N/A   Mostly Cloudy
2:20 PM 59.0 °F 50.0 °F 72% 30.12 in 6.2 mi SSW 13.8 mph - N/A   Mostly Cloudy
2:50 PM 57.2 °F 50.0 °F 77% 30.12 in 6.2 mi SW 13.8 mph - N/A   Mostly Cloudy
3:20 PM 57.2 °F 50.0 °F 77% 30.12 in 6.2 mi SW 16.1 mph - N/A   Mostly Cloudy
3:50 PM 57.2 °F 50.0 °F 77% 30.12 in 6.2 mi SW 16.1 mph - N/A   Mostly Cloudy
4:20 PM 57.2 °F 50.0 °F 77% 30.12 in 6.2 mi SW 13.8 mph - N/A   Mostly Cloudy
4:50 PM 57.2 °F 50.0 °F 77% 30.12 in 6.2 mi SW 17.3 mph - N/A   Mostly Cloudy
5:20 PM 57.2 °F 50.0 °F 77% 30.12 in 6.2 mi SW 15.0 mph - N/A   Mostly Cloudy
5:50 PM 55.4 °F 51.8 °F 88% 30.12 in 6.2 mi WSW 15.0 mph - N/A   Mostly Cloudy
6:20 PM 55.4 °F 51.8 °F 88% 30.12 in 6.2 mi SW 13.8 mph - N/A   Mostly Cloudy
6:50 PM 55.4 °F 51.8 °F 88% 30.12 in 6.2 mi WSW 10.4 mph - N/A   Mostly Cloudy
7:20 PM 55.4 °F 53.6 °F 94% 30.12 in 5.0 mi WSW 10.4 mph - N/A   Mostly Cloudy
7:50 PM 55.4 °F 53.6 °F 94% 30.12 in 5.0 mi WSW 11.5 mph - N/A   Mostly Cloudy
8:20 PM 57.2 °F 53.6 °F 88% 30.12 in 5.0 mi WSW 12.7 mph - N/A   Mostly Cloudy
8:50 PM 57.2 °F 53.6 °F 88% 30.12 in 5.6 mi West 16.1 mph - N/A   Mostly Cloudy
9:20 PM 57.2 °F 53.6 °F 88% 30.12 in 5.0 mi WSW 13.8 mph - N/A   Mostly Cloudy
9:50 PM 57.2 °F 53.6 °F 88% 30.12 in 5.0 mi West 16.1 mph - N/A   Mostly Cloudy
10:20 PM 57.2 °F 53.6 °F 88% 30.12 in 5.0 mi WSW 18.4 mph - N/A   Mostly Cloudy
10:50 PM 57.2 °F 53.6 °F 88% 30.12 in 5.6 mi West 18.4 mph - N/A   Mostly Cloudy
11:20 PM 57.2 °F 51.8 °F 82% 30.12 in 6.2 mi WSW 17.3 mph - N/A   Mostly Cloudy
11:50 PM 57.2 °F 51.8 °F 82% 30.09 in 6.2 mi West 17.3 mph - N/A   Mostly Cloudy